GFSNIL_sfc_30mbdewp_000.txt.gz
Dewpoint
71 68 65 62 62 61 58 59 62 61 60 58 58 59 61 60 61 60 61 62 60 60
69 67 64 62 61 60 60 59 60 59 59 57 57 60 60 60 60 61 61 62 62 61
67 65 60 60 60 59 59 58 59 58 58 58 58 59 60 59 59 60 60 60 60 61
64 61 59 58 60 59 57 57 59 58 58 58 59 59 59 59 59 60 60 60 60 60
61 59 59 59 60 60 58 58 59 59 59 59 60 60 59 58 60 59 59 59 60 60
60 60 60 60 60 60 59 58 58 59 60 59 59 57 57 58 58 59 59 59 59 59
61 60 61 61 61 60 59 58 58 59 58 57 56 56 57 58 58 58 59 59 60 59
62 61 62 62 61 61 60 60 59 59 58 58 57 57 57 58 58 58 59 60 59 58
63 63 63 65 64 62 60 60 60 58 58 57 58 58 58 59 59 59 59 57 56 56
63 63 63 64 63 62 61 60 59 59 58 58 58 58 58 58 60 58 56 55 55 53
63 62 62 61 61 62 60 59 59 58 58 58 59 58 58 58 60 58 57 56 55 55
63 62 63 61 61 61 59 59 59 59 59 58 58 58 59 59 59 58 58 56 55 53
64 62 60 61 61 60 60 60 60 60 60 60 61 60 59 59 58 56 55 54 54 53
65 63 63 62 61 60 61 61 61 59 57 56 59 62 59 57 56 55 54 53 53 51

GFSNIL_sfc_30mbdewp_003.txt.gz
Dewpoint
72 71 71 71 68 67 66 66 63 64 65 66 64 62 63 61 60 62 62 63 61 60
72 72 71 71 69 67 67 63 63 63 64 63 60 61 63 58 60 62 62 61 62 61
71 72 72 72 69 65 65 63 63 63 62 61 60 60 63 59 59 61 59 60 62 63
71 71 72 70 69 65 64 64 63 63 61 61 61 61 62 62 59 59 59 62 62 62
70 70 69 69 64 64 63 64 63 62 62 62 61 61 62 61 57 59 59 59 61 61
69 68 69 63 63 63 62 62 61 62 62 62 61 62 63 62 59 60 60 60 60 60
67 67 65 63 62 63 63 62 62 62 63 62 62 61 60 59 60 61 60 61 61 61
67 66 65 63 63 61 60 62 62 61 62 63 61 59 60 60 61 61 61 61 63 60
66 65 65 64 62 61 60 62 63 62 61 61 61 59 58 60 60 61 62 61 59 60
66 65 65 64 63 63 62 62 61 62 62 62 62 61 59 59 60 61 61 62 62 60
66 65 65 65 64 63 61 61 63 63 63 62 62 61 59 60 62 62 62 62 61 60
65 65 65 64 64 63 62 62 63 62 62 62 62 60 60 61 62 61 61 61 61 60
66 65 64 64 65 64 63 62 62 62 63 62 62 61 59 57 59 60 61 60 59 54
66 65 65 65 64 63 62 62 62 62 63 62 63 61 56 58 60 61 60 57 56 56

GFSNIL_sfc_30mbdewp_006.txt.gz
Dewpoint
72 71 69 68 64 62 60 59 61 68 64 62 62 62 60 58 58 58 58 59 59 56
73 72 68 67 68 65 64 59 64 66 64 60 62 60 59 57 58 57 58 56 57 58
71 72 71 70 69 67 66 66 64 64 61 60 61 59 60 56 57 57 54 52 53 57
69 70 71 71 72 71 70 67 65 64 60 60 60 60 60 59 56 55 55 54 57 58
69 69 70 72 72 72 71 67 66 64 63 62 59 59 60 59 55 55 55 56 57 58
68 69 69 71 71 71 68 66 65 64 64 63 63 60 60 61 59 57 56 57 57 58
68 68 70 70 69 67 65 64 64 62 63 61 62 62 61 60 60 57 56 58 58 59
69 69 70 70 68 65 63 63 59 60 60 61 63 62 61 59 57 57 58 58 59 59
69 70 69 69 67 65 63 60 59 59 58 59 61 57 57 58 58 58 59 59 60 62
70 69 69 68 67 64 62 60 59 60 60 60 62 59 59 59 57 58 59 61 61 60
69 69 68 68 66 65 61 60 61 63 62 61 60 62 60 60 61 60 62 62 62 61
68 68 67 67 66 66 63 61 62 63 62 62 62 62 60 60 59 60 62 63 61 61
68 67 67 67 67 66 65 63 62 62 63 62 64 61 59 60 59 60 59 61 62 60
68 68 68 68 67 66 65 64 64 63 62 63 63 63 59 59 61 56 59 57 61 59

GFSNIL_sfc_30mbdewp_009.txt.gz
Dewpoint
73 69 67 67 65 62 60 60 68 67 65 64 61 62 62 59 59 58 59 59 59 56
74 73 67 67 70 65 63 60 61 65 65 64 60 62 61 58 59 59 58 58 59 58
73 74 73 72 70 68 65 65 64 66 65 63 61 63 61 59 59 59 58 55 55 57
71 72 73 72 71 71 68 69 65 68 66 62 62 63 63 61 58 59 60 60 56 56
72 72 72 73 72 72 70 70 68 68 66 63 62 61 62 61 59 57 57 56 58 58
70 71 71 73 72 73 73 71 68 68 67 63 63 63 63 62 62 59 58 57 59 58
70 71 71 72 73 73 73 72 69 67 67 65 64 64 63 62 62 62 61 60 59 59
71 71 71 71 73 73 73 72 69 67 66 65 61 61 63 60 59 62 61 58 59 60
71 72 72 72 73 73 72 71 68 65 63 60 58 56 60 61 58 61 60 59 61 62
72 72 73 73 73 72 70 69 66 64 60 59 60 60 60 60 58 59 60 61 61 61
72 73 73 73 72 71 70 68 66 63 60 61 62 61 59 59 59 59 59 60 62 62
71 71 71 71 70 69 69 68 65 63 62 64 64 61 60 61 60 61 62 62 62 62
71 70 69 70 70 69 69 67 65 62 64 65 64 62 61 62 63 61 61 62 64 63
69 70 69 69 70 69 68 67 66 64 65 65 65 64 60 60 63 59 58 61 60 60

GFSNIL_sfc_30mbdewp_012.txt.gz
Dewpoint
73 73 71 69 67 68 65 64 70 69 69 68 66 65 66 66 63 63 63 60 61 61
74 73 72 69 69 70 66 68 69 69 70 68 68 67 67 63 63 63 64 63 62 60
75 74 71 71 71 68 69 66 71 70 69 68 66 66 67 63 64 63 62 61 61 62
74 74 73 73 71 72 69 68 70 70 69 68 66 66 66 63 62 63 62 61 61 60
74 74 74 73 73 72 73 71 69 70 69 68 65 67 64 63 60 64 63 63 62 59
73 74 73 74 73 74 72 71 69 70 69 68 65 66 65 64 64 63 61 61 60 60
72 73 73 73 74 73 73 72 71 70 69 69 65 65 64 65 65 64 62 63 62 61
72 72 73 73 74 74 74 74 73 71 70 69 66 64 65 65 65 65 63 65 62 61
71 72 72 73 73 74 74 74 73 72 69 69 66 61 62 65 64 65 64 64 63 61
70 72 73 73 73 73 74 74 73 73 69 68 66 59 59 63 64 61 63 64 63 62
70 72 73 73 73 73 74 74 73 71 68 66 64 61 60 60 61 60 63 63 63 62
74 74 74 74 74 74 74 72 71 69 66 64 64 62 61 60 61 60 62 62 63 63
74 74 74 74 74 72 71 70 69 67 65 64 65 65 62 60 62 60 62 63 62 62
74 74 74 74 72 70 70 70 68 66 65 65 65 66 61 60 63 62 62 63 63 63

GFSNIL_sfc_30mbdewp_015.txt.gz
Dewpoint
72 69 69 69 71 70 70 69 70 69 67 64 62 67 66 65 63 63 61 61 60 59
71 72 71 71 71 70 68 69 69 69 67 66 64 63 66 65 62 64 63 59 60 59
72 71 71 72 70 70 68 69 69 70 68 68 65 64 66 63 64 62 64 63 62 60
73 73 72 72 71 69 69 69 69 69 69 67 66 66 66 64 62 63 61 62 60 62
74 74 73 71 71 72 69 70 70 69 69 68 66 65 66 64 62 61 63 61 61 59
73 74 73 72 72 72 71 70 70 70 68 68 67 66 66 64 62 63 62 63 61 60
73 73 73 73 72 72 73 72 69 69 69 68 67 65 66 64 63 62 64 63 63 62
73 73 73 73 74 72 72 72 72 69 69 69 68 65 65 65 64 63 63 63 63 62
72 72 73 73 73 74 73 73 72 71 70 69 68 66 65 65 65 65 64 63 64 63
70 72 72 73 73 74 74 73 74 72 71 69 69 66 64 65 65 64 64 64 64 64
70 71 72 72 73 72 74 73 74 73 72 70 68 64 63 62 64 64 64 64 64 63
69 70 72 72 72 73 74 74 74 72 70 67 67 64 61 60 60 61 61 63 64 64
68 70 72 72 73 74 74 72 72 69 68 66 64 62 61 60 60 60 61 61 63 62
71 73 73 74 73 72 71 71 69 68 66 64 64 64 61 60 61 61 61 61 62 62

GFSNIL_sfc_30mbdewp_021.txt.gz
Dewpoint
67 67 66 66 66 67 70 70 71 70 70 68 64 64 64 62 62 61 61 60 59 60
68 67 67 67 67 68 69 70 71 71 70 68 64 63 63 62 62 62 61 60 62 60
69 69 68 68 68 68 69 70 70 70 69 67 65 64 63 63 62 63 62 61 59 60
69 69 69 68 68 69 70 70 69 70 69 67 65 64 64 64 63 62 62 62 61 59
69 69 70 69 69 69 69 70 69 69 68 67 65 63 64 64 64 62 61 61 62 61
68 69 69 70 69 70 70 69 69 69 68 67 66 65 63 64 63 63 62 61 60 61
69 69 69 69 69 70 71 69 69 69 68 68 67 66 65 63 63 63 63 63 61 60
69 70 70 70 69 69 70 70 69 68 68 68 67 66 65 65 64 63 63 62 63 62
70 70 71 71 71 70 70 70 69 69 68 68 68 67 66 65 65 64 64 63 63 63
69 70 71 71 71 71 70 70 70 69 69 68 68 67 66 65 66 65 64 63 63 63
70 70 71 72 72 72 71 71 71 70 69 69 69 67 65 65 66 65 65 64 64 63
71 71 71 71 72 72 72 71 71 71 70 70 70 68 66 64 66 66 65 65 65 64
71 71 71 71 71 72 72 72 72 71 71 71 70 68 66 65 66 65 65 65 65 64
71 71 71 72 72 72 72 73 72 72 72 71 69 66 63 65 66 65 65 63 62 62

GFSNIL_sfc_30mbdewp_027.txt.gz
Dewpoint
70 69 69 69 67 67 67 67 69 72 72 72 72 71 70 69 67 65 65 65 63 62
70 70 68 68 70 68 69 67 70 71 72 72 72 71 70 67 67 65 65 64 65 62
69 70 69 70 69 69 69 70 69 71 72 72 72 71 70 68 67 66 65 63 64 64
69 69 70 69 70 70 70 70 70 71 71 71 71 71 70 69 67 66 66 64 64 64
69 69 69 69 69 70 70 70 71 71 71 71 71 71 70 69 68 67 66 65 64 64
69 69 69 70 70 70 70 70 70 71 71 71 70 71 70 70 69 67 67 66 65 64
69 69 69 70 70 70 71 70 71 71 71 71 70 70 70 70 69 69 68 67 66 65
69 69 70 70 70 70 71 71 71 71 71 71 70 69 70 69 69 69 68 68 67 66
69 70 70 70 70 71 71 71 71 71 71 71 70 69 68 70 69 69 69 68 68 67
69 70 70 70 71 70 71 71 71 71 71 71 71 67 67 67 69 69 69 69 68 67
68 69 70 70 70 71 71 71 71 71 71 71 71 67 66 66 68 69 69 69 69 68
68 69 70 70 70 70 71 71 71 71 71 71 71 67 65 65 68 69 69 69 69 68
69 69 69 70 70 71 70 70 70 71 71 71 71 68 65 65 67 68 68 69 69 66
70 70 70 70 71 71 71 70 70 70 71 71 71 71 65 64 69 67 68 68 68 68

GFSNIL_sfc_30mbdewp_030.txt.gz
Dewpoint
73 70 69 69 66 66 64 65 66 70 71 71 71 72 72 71 70 68 68 65 62 56
73 72 67 69 71 67 68 65 67 68 71 70 71 72 72 70 70 67 68 64 65 61
71 73 72 71 71 70 68 69 67 69 70 70 71 72 72 70 70 69 67 64 62 63
70 71 72 71 72 72 71 71 71 70 70 69 71 72 72 71 68 70 68 66 63 64
71 71 70 72 72 73 72 72 72 72 71 70 70 71 72 71 68 69 69 68 67 64
70 70 71 72 72 72 73 73 70 72 72 71 70 71 71 71 71 69 70 69 68 66
70 70 71 72 72 72 73 73 72 72 73 72 71 70 70 70 70 70 69 70 69 67
70 71 71 72 72 72 73 73 73 73 73 73 70 69 71 71 70 70 70 70 70 69
70 71 72 72 72 73 73 73 73 72 73 72 70 68 68 71 69 71 71 70 70 70
70 71 72 72 73 73 73 73 73 73 72 73 72 67 66 68 69 70 71 71 70 69
70 71 72 73 73 73 73 73 73 73 73 73 73 70 66 67 69 70 70 70 71 71
70 70 71 72 72 73 72 72 72 72 73 73 73 70 67 66 69 69 71 71 71 71
70 70 70 72 72 72 72 71 70 71 72 72 73 71 66 66 68 68 68 71 72 69
70 71 71 72 73 73 72 70 72 71 71 73 73 73 66 65 69 67 67 65 68 69

GFSNIL_sfc_30mbdewp_033.txt.gz
Dewpoint
73 70 69 68 64 63 62 62 65 73 72 72 72 72 72 71 71 70 69 66 64 58
74 73 69 69 71 68 67 63 67 70 72 72 72 72 73 70 72 69 69 67 66 63
74 74 73 72 72 70 69 70 69 69 70 72 72 72 73 70 71 71 68 64 66 66
73 73 74 72 73 73 72 72 71 72 71 72 72 72 73 72 70 71 71 68 66 66
72 73 73 74 72 74 73 73 73 73 73 72 72 72 73 73 67 71 71 70 68 66
72 72 72 73 74 73 74 74 73 73 73 73 72 72 74 73 72 71 71 71 71 69
71 72 72 72 74 74 74 74 74 73 74 74 74 73 73 73 73 72 71 72 72 71
71 72 72 72 73 74 74 74 74 74 74 74 74 72 72 72 72 73 72 72 72 72
70 72 73 73 74 74 74 74 74 74 74 73 73 70 69 72 72 72 73 72 72 72
70 72 73 74 74 74 74 74 74 74 74 74 74 70 67 68 72 72 72 73 73 72
69 71 73 74 74 74 75 74 74 74 74 74 74 72 67 66 70 71 72 72 73 73
70 71 73 73 74 74 74 74 74 74 75 75 74 72 70 66 69 70 71 71 73 73
71 72 72 73 74 75 75 74 73 74 74 74 75 73 70 68 70 69 70 71 72 71
71 72 73 73 74 75 75 73 74 73 73 74 74 75 70 67 71 69 69 69 70 71

GFSNIL_sfc_30mbdewp_039.txt.gz
Dewpoint
72 70 68 69 66 65 69 70 71 73 72 72 72 72 73 72 72 72 69 70 67 63
70 73 69 66 71 66 67 69 71 72 74 73 72 72 72 74 72 73 71 69 70 66
70 69 73 69 67 71 66 67 70 72 73 73 73 72 72 74 74 72 73 71 69 69
71 70 71 72 69 71 70 70 69 72 73 72 73 74 73 73 73 73 73 71 70 69
72 72 70 72 73 69 72 70 73 73 73 73 72 72 74 72 72 71 72 72 70 69
72 72 71 71 71 73 70 73 70 74 73 73 73 73 73 73 72 71 73 72 70 68
72 72 73 72 71 70 73 72 74 71 74 73 73 73 73 73 73 72 71 73 72 70
72 72 72 72 73 73 71 73 72 73 72 74 73 73 72 73 73 72 72 71 73 72
71 72 71 72 72 73 73 72 72 73 72 73 73 72 72 72 72 72 72 72 71 73
71 71 72 72 72 72 73 73 72 72 73 72 73 72 71 71 72 72 72 72 72 71
70 71 71 72 72 72 73 73 73 73 73 73 73 72 71 70 72 72 72 73 73 72
70 70 71 71 72 72 72 73 73 74 74 73 74 72 71 69 71 72 71 72 73 73
70 71 70 71 71 72 73 72 73 73 74 74 74 73 71 70 71 71 71 71 71 71
72 71 72 71 72 73 73 73 73 73 74 74 74 74 72 70 72 72 71 71 70 70

GFSNIL_sfc_30mbdewp_042.txt.gz
Dewpoint
69 68 67 66 65 65 67 68 70 71 72 72 72 72 71 70 71 70 69 68 65 64
70 68 68 67 67 65 68 70 70 71 72 72 72 72 72 71 70 72 70 68 69 65
69 71 70 68 68 69 66 69 70 71 72 72 71 71 72 73 72 71 72 70 68 68
68 68 72 70 67 67 70 67 69 71 72 72 72 71 71 72 73 71 71 72 70 68
70 69 68 72 70 68 68 70 67 71 71 72 72 72 71 71 72 73 72 72 71 70
71 71 69 68 72 70 69 69 70 72 71 72 72 72 72 71 71 72 72 72 71 71
71 71 71 70 69 72 71 68 70 72 73 72 72 72 72 72 72 72 72 72 72 71
70 71 72 72 70 70 71 72 69 71 72 73 73 73 72 71 71 72 72 71 73 72
71 71 71 72 72 71 70 70 72 71 72 72 72 72 72 72 72 71 71 71 71 72
71 71 72 72 72 72 71 71 69 71 72 71 73 72 71 71 71 71 71 71 71 71
71 71 72 71 71 71 72 72 72 70 71 72 71 71 70 70 72 71 71 72 71 71
70 71 71 71 71 71 71 71 72 73 72 71 71 71 70 69 71 71 72 72 72 72
70 70 71 71 71 71 71 72 72 72 73 73 73 71 70 69 71 71 71 72 72 71
67 69 70 71 71 71 72 71 71 72 72 73 73 73 70 69 72 72 72 71 71 72

GFSNIL_sfc_30mbdewp_045.txt.gz
Dewpoint
66 66 66 66 66 65 66 67 69 71 71 70 71 71 70 70 70 69 68 67 63 63
67 66 66 67 66 66 66 67 68 69 71 71 71 71 71 70 70 71 69 68 68 64
67 67 67 67 66 66 66 67 68 69 70 71 72 71 71 70 70 70 70 69 67 68
67 68 68 68 68 68 66 67 69 69 70 71 71 71 71 71 71 70 70 71 70 68
68 69 69 69 68 68 69 67 68 70 70 71 71 71 71 70 71 71 71 71 71 70
67 67 69 71 71 68 67 68 68 69 70 70 71 71 71 71 70 71 72 71 71 71
68 68 67 68 70 71 69 68 69 69 69 70 71 72 71 71 71 71 71 72 72 72
69 70 69 69 68 69 71 70 69 69 70 71 71 71 71 72 71 71 71 71 72 72
69 70 70 70 70 68 70 71 70 69 69 71 71 71 71 71 71 71 71 71 71 72
69 69 70 71 71 70 69 69 71 71 69 70 70 70 71 71 71 70 70 70 70 71
70 70 70 71 71 71 71 70 70 70 71 71 71 70 69 70 71 71 71 71 71 70
70 70 71 70 71 71 72 71 71 70 69 69 71 70 70 69 70 71 71 71 71 71
70 70 70 71 71 71 71 71 72 72 72 71 70 70 69 68 71 71 71 71 72 71
69 70 71 71 71 71 71 71 71 71 72 72 72 72 68 67 70 71 70 71 71 71

GFSNIL_sfc_30mbdewp_048.txt.gz
Dewpoint
65 64 65 65 65 64 65 67 69 70 71 70 71 70 71 70 70 69 69 67 63 62
65 65 65 66 66 66 66 67 68 69 70 71 71 71 71 70 69 70 69 68 68 65
65 66 66 66 66 66 66 67 67 68 69 70 71 71 71 70 70 70 70 70 68 68
66 66 66 66 67 66 66 67 67 68 68 69 70 71 71 71 71 70 70 70 70 69
66 67 67 67 67 67 66 67 68 69 68 69 70 70 71 70 71 70 69 70 70 70
66 67 67 67 68 68 68 67 67 68 69 69 70 71 71 71 71 71 71 70 70 70
66 67 67 68 68 68 68 68 68 68 69 69 70 71 71 71 71 71 71 71 71 71
67 67 68 69 70 70 68 68 68 68 68 69 70 70 71 71 71 71 70 71 72 72
67 67 68 68 68 70 71 69 69 69 69 69 69 69 69 71 71 71 70 70 71 72
67 68 68 69 68 68 68 70 70 70 69 69 70 69 68 69 70 70 71 71 71 71
68 68 69 70 69 69 69 69 70 70 70 69 69 69 68 69 70 70 71 71 71 71
68 68 69 70 70 70 70 70 69 70 70 71 70 68 68 68 70 70 70 71 72 71
69 69 69 69 70 71 71 71 70 70 70 70 70 70 68 68 69 69 70 71 71 71
70 70 70 70 70 70 71 71 71 71 71 71 70 70 68 66 70 70 70 70 70 71

GFSNIL_sfc_30mbdewp_051.txt.gz
Dewpoint
69 66 66 67 65 65 64 65 69 71 71 72 72 72 72 71 71 71 69 69 67 63
68 68 66 67 68 66 67 65 68 70 70 71 71 72 72 71 72 72 71 70 71 68
68 69 68 68 68 67 67 68 66 69 70 71 71 72 72 70 72 72 71 70 71 71
67 67 68 67 68 68 68 69 69 69 70 70 71 71 72 71 70 72 71 71 71 71
67 68 67 68 68 69 69 69 69 69 70 70 70 70 71 70 69 70 71 71 71 71
67 67 67 68 68 69 69 69 68 69 69 69 69 70 70 70 70 70 70 71 71 71
67 67 67 68 69 69 70 69 69 69 69 69 69 70 70 70 71 71 71 71 72 72
67 68 68 69 69 70 70 70 70 69 69 69 69 68 69 70 70 71 71 71 72 72
68 68 69 69 70 70 70 70 70 69 69 69 68 66 67 70 69 71 71 70 71 72
69 69 69 70 70 71 70 70 70 69 69 70 70 68 67 69 69 69 70 71 71 70
69 69 70 70 70 70 70 71 71 70 71 70 70 69 67 67 69 70 71 71 71 71
69 69 70 70 70 70 69 69 70 70 71 71 71 69 68 68 69 69 71 71 71 71
69 69 70 70 71 71 71 70 69 69 71 71 71 70 67 67 68 68 68 70 72 71
70 70 70 71 71 71 71 70 71 70 71 71 71 72 69 66 69 68 68 68 67 69